Location: LDNL
(36.4545°S, 141.6685°E)
Time: 12:10:38
(UTC+10:00)

SR - All Passes

Search period start: 08 August 2022 00:00
Search period end: 18 August 2022 00:00
Orbit: 572 x 880 km, 66.7° (Epoch: 07 August)

Date Brightness Start Highest point End Pass type
(mag) Time Alt. Az. Time Alt. Az. Time Alt. Az.
08 Aug - 00:32:07 10° WSW 00:34:08 13° SW 00:36:07 10° SSW night (unlit)
08 Aug - 07:30:09 10° S 07:33:46 24° SE 07:37:31 10° ENE daylight
08 Aug - 09:11:47 10° SW 09:15:42 30° WNW 09:19:50 10° N daylight
08 Aug - 21:57:51 10° NNE 22:01:49 27° ENE 22:05:34 10° SE night (unlit)
08 Aug - 23:39:51 10° WNW 23:43:42 26° SW 23:47:24 10° S night (unlit)
09 Aug - 06:41:40 10° SSE 06:43:18 12° SE 06:44:58 10° ESE visible
09 Aug - 08:21:16 10° SSW 08:25:41 73° WNW 08:30:25 10° NNE daylight
09 Aug - 21:10:24 10° NE 21:11:57 12° ENE 21:13:28 10° E night (unlit)
09 Aug - 22:48:54 10° NW 22:53:28 58° WSW 22:57:47 10° SSE night (unlit)
10 Aug - 07:31:18 10° SSW 07:35:34 47° ESE 07:40:07 10° NE daylight
10 Aug - 09:14:38 10° WSW 09:17:12 15° WNW 09:19:50 10° NW daylight
10 Aug - 21:58:48 10° NNW 22:03:22 58° ENE 22:07:41 10° SE night (unlit)
10 Aug - 23:43:18 10° W 23:45:38 14° SW 23:47:57 10° SSW night (unlit)
11 Aug - 06:41:49 10° S 06:45:18 22° SE 06:48:55 10° ENE visible
11 Aug - 08:23:14 10° SW 08:27:17 34° WNW 08:31:35 10° N daylight
11 Aug - 21:09:39 10° NNE 21:13:24 24° ENE 21:16:59 10° SE night (unlit)
11 Aug - 22:51:17 10° WNW 22:55:14 29° WSW 22:59:03 10° S night (unlit)
12 Aug - 05:53:43 10° SSE 05:54:49 11° SE 05:55:55 10° ESE visible
12 Aug - 07:32:48 10° SSW 07:37:16 82° WNW 07:42:02 10° NNE daylight
12 Aug - 22:00:26 10° NW 22:05:01 66° WSW 22:09:22 10° SSE night (unlit)
13 Aug - 06:42:53 10° SSW 06:47:07 43° ESE 06:51:37 10° NE visible
13 Aug - 08:25:54 10° WSW 08:28:48 17° WNW 08:31:49 10° NNW daylight
13 Aug - 21:10:27 10° N 21:14:57 51° ENE 21:19:12 10° SE night (unlit)
13 Aug - 22:54:32 10° W 22:57:09 15° SW 22:59:43 10° SSW night (unlit)
14 Aug - 05:53:29 10° S 05:56:49 20° SE 06:00:17 10° ENE visible
14 Aug - 07:34:42 10° SW 07:38:52 38° WNW 07:43:19 10° N daylight
14 Aug - 20:21:28 10° NNE 20:24:59 22° ENE 20:28:22 10° ESE night (unlit)
14 Aug - 22:02:43 10° WNW 22:06:46 31° WSW 22:10:41 10° S night (unlit)
15 Aug - 06:44:21 10° SSW 06:48:50 89° ESE 06:53:38 10° NNE visible
15 Aug - 21:12:00 10° NNW 21:16:35 74° WSW 21:20:55 10° SSE night (unlit)
16 Aug - 05:54:28 10° S 05:58:40 39° ESE 06:03:07 10° NE visible
16 Aug - 07:37:12 10° WSW 07:40:23 19° WNW 07:43:44 10° NNW daylight
16 Aug - 20:22:07 10° N 20:26:31 45° ENE 20:30:41 10° SE visible
16 Aug - 22:05:48 10° W 22:08:40 17° SW 22:11:28 10° SSW night (unlit)
17 Aug - 05:05:10 10° S 05:08:20 19° SE 05:11:38 10° E visible
17 Aug - 06:46:10 10° SW 06:50:27 43° WNW 06:55:01 10° N visible
17 Aug - 19:33:19 10° NNE 19:36:34 19° ENE 19:39:43 10° ESE visible
17 Aug - 21:14:10 10° NW 21:18:19 35° WSW 21:22:17 10° S visible
